Regional Weather Roundup
Issued by NWS

Home | Current Version | Previous Version | Graphics & Text | Print | Product List | Glossary On
Versions: 1 2 3 4 5 6 7 8 9 10 11 12 13 14 15 16 17 18 19 20 21 22 23 24 25 26 27 28 29 30 31 32 33 34 35 36 37 38 39 40 41 42 43 44 45 46 47 48 49 50
000
ASUS45 KCYS 261510
RWRWY

WYOMING REGIONAL WEATHER ROUNDUP
NATIONAL WEATHER SERVICE CHEYENNE WY
900 AM MDT TUE AUG 26 2014

NOTE:  "FAIR" INDICATES FEW OR NO CLOUDS BELOW 12,000 FEET
WITH NO SIGNIFICANT WEATHER AND/OR OBSTRUCTIONS TO VISIBILITY.

WYZ001-261600-
YELLOWSTONE NATIONAL PARK

CITY           SKY/WX    TMP DP  RH WIND       PRES   REMARKS
LK YELLOWSTONE   N/A     46  43  89 CALM      30.35R
W YELLOWSTONE  NOT AVBL

$$
WYZ002>013-054>058-071-098>099-261600-
NORTHERN WYOMING

CITY           SKY/WX    TMP DP  RH WIND       PRES   REMARKS
JACKSON        CLOUDY    46  45  93 CALM      30.26F
CODY           PTSUNNY   55  52  88 CALM      30.21R
GREYBULL       MOSUNNY   56  50  80 SE6       30.17R
WORLAND        MOSUNNY   58  51  78 CALM      30.17R
SHERIDAN       MOSUNNY   55  48  77 CALM      30.16S
BUFFALO        MOSUNNY   60  47  61 NW3       30.19R
GILLETTE       MOSUNNY   60  53  77 S17       30.15R
HULETT         FAIR      54  48  82 MISG      30.17
NEWCASTLE      PTSUNNY   63  52  67 S14       30.19

$$
WYZ014>020-022>026-101>103-261600-
CENTRAL WYOMING

CITY           SKY/WX    TMP DP  RH WIND       PRES   REMARKS
BIG PINEY      PTSUNNY   52  48  86 VRB5      30.30F
PINEDALE       MOSUNNY   54  45  71 CALM      30.31S
DUBOIS         FAIR      48  41  76 NW6       30.28S
LANDER         PTSUNNY   55  51  86 E8        30.20F
RIVERTON       CLOUDY    53  48  83 S8        30.23F
CASPER         PTSUNNY   61  52  72 W8        30.21R
DOUGLAS        PTSUNNY   59  52  77 W3        30.20R

$$
WYZ021-027>030-104>119-261600-
SOUTHERN WYOMING

CITY           SKY/WX    TMP DP  RH WIND       PRES   REMARKS
EVANSTON       SUNNY     52  47  83 SE8       30.30S
KEMMERER       MOSUNNY   50  46  87 S5        30.32R
FORT BRIDGER   FAIR      55  48  78 SE13      30.34S
ROCK SPRINGS   PTSUNNY   52  45  77 S8        30.31R
DIXON          PTSUNNY   55  48  79 W3        30.33R
RAWLINS        PTSUNNY   55  48  77 W12       30.30R
SARATOGA       PTSUNNY   54  46  76 MISG      30.31R
LARAMIE        PTSUNNY   55  50  83 S14       30.30S
CHEYENNE       PTSUNNY   62  54  74 SW16G31   30.26F
TORRINGTON     PTSUNNY   60  57  89 SE6       30.17S
PINE BLUFFS    FAIR      64  55  72 SW13G20   30.24S

$$



USA.gov is the U.S. government's official web portal to all federal, state and local government web resources and services.